Regional Weather Roundup
Issued by NWS

Home | Current Version | Previous Version | Graphics & Text | Print | Product List | Glossary On
Versions: 1 2 3 4 5 6 7 8 9 10 11 12 13 14 15 16 17 18 19 20 21 22 23 24 25 26 27 28 29 30 31 32 33 34 35 36 37 38 39 40 41 42 43 44 45 46 47 48 49 50
000
ASUS43 KOAX 052202
RWRNE

WEATHER ROUNDUP FOR NEBRASKA
NATIONAL WEATHER SERVICE OMAHA NE
400 PM CST MON DEC 05 2016

NOTES: SATELLITE DATA IS BEING USED TO AUGMENT CLOUD COVER ABOVE
       12000 FEET.
       "FAIR" INDICATES FEW OR NO CLOUDS BELOW 12,000 FEET WITH NO
       SIGNIFICANT WEATHER AND/OR OBSTRUCTIONS TO VISIBILITY.

  * THESE STATIONS DO NOT REPORT WEATHER SUCH AS RAIN...SNOW OR FOG.

NEZ001>004-019>022-054>056-052300-
NEBRASKA PANHANDLE

CITY           SKY/WX    TMP DP  RH WIND       PRES   REMARKS
SCOTTSBLUFF    MOSUNNY   29  11  47 NW26G35   29.81R WCI  14
ALLIANCE       SUNNY     30  12  47 NW25G33   29.74R WCI  16
CHADRON        CLOUDY    27  14  58 NW24G40   29.81R WCI  12
SIDNEY         SUNNY     31  15  52 NW33G49   29.72  WCI  15
$$

NEZ057>060-069>072-079>082-052300-
SOUTHWEST NEBRASKA

CITY           SKY/WX    TMP DP  RH WIND       PRES   REMARKS
NORTH PLATTE   MOSUNNY   50  25  37 NW22G30   29.65R
IMPERIAL       SUNNY     47  -2  13 NW26G40   29.67R
MCCOOK         MOSUNNY   54  14  20 NW22      29.64R
OGALLALA       MOSUNNY   44  22  40 NW28G38   29.68R
$$

NEZ005>010-023>029-035>040-094-052300-
NORTH CENTRAL NEBRASKA

CITY           SKY/WX    TMP DP  RH WIND       PRES   REMARKS
VALENTINE      CLOUDY    28  20  71 NW25G43   29.73R WCI  13
AINSWORTH      CLOUDY    32  25  75 NW28G33   29.69R WCI  18
BROKEN BOW     CLOUDY    48  30  49 N25G31    29.63R
O`NEILL        CLOUDY    39  32  74 NW22G28   29.66R WCI  29
ORD            PTCLDY    48  27  44 NW15      29.62R
$$

NEZ041-046>049-061>064-073>077-083>087-052300-
SOUTH CENTRAL NEBRASKA

CITY           SKY/WX    TMP DP  RH WIND       PRES   REMARKS
GRAND ISLAND   CLOUDY    47  35  63 S12       29.61R
AURORA         MOCLDY    49  37  61 S9        29.60R
HASTINGS       CLEAR     51  34  52 S12G21    29.62R
HEBRON         CLEAR     51  36  56 S12       29.63R
HOLDREGE       CLOUDY    50  30  47 S8        29.61R
KEARNEY *      PTCLDY    48  30  49 S14       29.61R
YORK           MOCLDY    48  37  66 SW13      29.62R
$$

NEZ011>018-030>034-042>045-052300-
NORTHEAST NEBRASKA

CITY           SKY/WX    TMP DP  RH WIND       PRES   REMARKS
NORFOLK        CLOUDY    44  35  70 S12       29.60R
ALBION         CLOUDY    45  32  61 SW7       29.61R
BLAIR          PTCLDY    48  36  61 S22G29    29.62S
FREMONT        CLOUDY    48  35  61 S8        29.63R
TEKAMAH        CLOUDY    47  37  68 S17       29.62S
WAYNE          CLOUDY    44  36  73 SW8       29.62R
$$

NEZ050>053-065>068-078-088>093-052300-
SOUTHEAST NEBRASKA

CITY           SKY/WX    TMP DP  RH WIND       PRES   REMARKS
LINCOLN        CLEAR     52  35  52 S17G26    29.62S
OMAHA EPPLEY   MOCLDY    50  36  58 S21       29.64R
BEATRICE       CLEAR     53  33  47 S16G22    29.64F
FALLS CITY     CLEAR     49  37  63 S15       29.71S
NEBRASKA CITY  CLEAR     50  31  47 S17       29.67F
$$

NEZ044-045-051>053-067-052300-
OMAHA AREA

CITY           SKY/WX    TMP DP  RH WIND       PRES   REMARKS
OMAHA EPPLEY   MOCLDY    50  36  58 S21       29.64R
BLAIR          PTCLDY    48  36  61 S22G29    29.62S
FREMONT        CLOUDY    48  35  61 S8        29.63R
MILLARD        PTCLDY    50  36  59 SE13      29.64S
OFFUTT AFB     PTCLDY    49  39  69 S12       29.65S
WAHOO          FAIR      48  36  64 S10       29.63R
$$




USA.gov is the U.S. government's official web portal to all federal, state and local government web resources and services.